Location: Moscow
(44.4414°N, 72.7154°W)
Time: 09:40:45
(UTC+00:00)

ISS - Visible Passes

Search period start: 11 October 2024 00:00
Search period end: 21 October 2024 00:00
Orbit: 411 x 424 km, 51.6° (Epoch: 10 October)

Date Brightness Start Highest point End Pass type
(mag) Time Alt. Az. Time Alt. Az. Time Alt. Az.
14 Oct -0.6 10:35:28 10° SSE 10:36:54 12° SE 10:38:20 10° ESE visible
16 Oct -1.9 10:33:06 10° SSW 10:36:04 31° SE 10:39:03 10° ENE visible
17 Oct -1.2 09:45:01 10° S 09:47:25 19° SE 09:49:50 10° E visible
18 Oct -0.8 08:57:42 10° SSE 08:58:43 11° SE 08:59:45 10° ESE visible
18 Oct -3.7 10:31:36 10° SW 10:34:54 78° SSE 10:38:14 10° ENE visible
19 Oct -2.9 09:44:02 21° SSW 09:45:54 46° SE 09:49:07 10° ENE visible
20 Oct -1.8 08:57:21 26° ESE 08:57:21 26° ESE 08:59:44 10° ENE visible
20 Oct -3.4 10:30:14 10° W 10:33:24 48° NNW 10:36:39 10° NE visible
